User: anonymous   Login
Location: Red Shale Campground
(45.5700°N, 106.1600°W)
Time: 10:44:47
(UTC-06:00)
Language:

FENGYUN 3A - Orbit

View from above orbital plane
View from above orbital plane
View from above satellite
View from above satellite

Ground track
Ground track

The orbit data is extracted from the following two-line orbital elements,

1 32958U 08026A   17202.18533587 +.00000006 +00000-0 +22045-4 0  9998
2 32958 098.4061 229.1650 0009506 174.5078 185.6206 14.19666794474156
Epoch (UTC): 21 July 2017 04:26:53
Eccentricity: 0.0009506
inclination: 98.4061°
perigee height: 819 km
apogee height: 833 km
right ascension of ascending node: 229.1650°
argument of perigee: 174.5078°
revolutions per day: 14.19666794
mean anomaly at epoch: 185.6206°
orbit number at epoch: 47415

The dashed part of the orbit path shows where the satellite is in the earth's shadow,  

DLR